QPF
0.00 0.00 0.00 0.00 0.02 0.08 0.07 0.01 0.00 0.00 0.00 0.00 0.00 0.00 0.00 0.00 0.00 0.01 0.00 0.00 0.00 0.00 0.00 0.00 0.00 0.00 0.00 0.00 0.00 0.00 0.00 0.00 0.00 0.01 0.01 0.00 0.00 0.00 0.00 0.00 0.00 0.00 0.00 0.00 0.00 0.00 0.00 0.00 0.00
0.00 0.00 0.00 0.00 0.03 0.06 0.04 0.01 0.00 0.00 0.00 0.00 0.00 0.00 0.00 0.00 0.00 0.00 0.00 0.00 0.00 0.00 0.00 0.00 0.00 0.00 0.00 0.00 0.00 0.00 0.00 0.00 0.00 0.00 0.00 0.00 0.00 0.00 0.00 0.00 0.00 0.00 0.00 0.01 0.01 0.01 0.00 0.00 0.00
0.00 0.00 0.00 0.00 0.01 0.01 0.00 0.00 0.00 0.00 0.00 0.00 0.00 0.00 0.00 0.00 0.00 0.00 0.00 0.00 0.00 0.00 0.00 0.00 0.00 0.00 0.00 0.00 0.00 0.00 0.00 0.00 0.00 0.00 0.00 0.00 0.00 0.00 0.00 0.00 0.00 0.00 0.01 0.01 0.01 0.01 0.01 0.00 0.00
0.00 0.00 0.00 0.00 0.00 0.00 0.00 0.00 0.00 0.00 0.00 0.00 0.00 0.00 0.00 0.00 0.00 0.00 0.00 0.00 0.00 0.00 0.00 0.00 0.00 0.00 0.00 0.00 0.00 0.00 0.00 0.00 0.00 0.00 0.00 0.00 0.00 0.01 0.01 0.01 0.01 0.01 0.01 0.01 0.01 0.01 0.01 0.01 0.00
0.00 0.00 0.00 0.00 0.00 0.00 0.00 0.00 0.00 0.00 0.00 0.00 0.00 0.00 0.00 0.00 0.00 0.00 0.00 0.00 0.00 0.00 0.00 0.00 0.00 0.00 0.00 0.00 0.00 0.00 0.00 0.00 0.00 0.00 0.00 0.00 0.00 0.00 0.01 0.01 0.01 0.01 0.01 0.01 0.01 0.01 0.01 0.01 0.00
0.00 0.00 0.00 0.00 0.00 0.00 0.00 0.00 0.00 0.00 0.00 0.00 0.00 0.00 0.00 0.00 0.00 0.00 0.00 0.00 0.00 0.00 0.00 0.00 0.00 0.00 0.00 0.00 0.00 0.00 0.00 0.00 0.00 0.00 0.00 0.00 0.00 0.00 0.00 0.01 0.01 0.01 0.01 0.02 0.02 0.02 0.01 0.01 0.00
0.00 0.00 0.00 0.00 0.00 0.00 0.00 0.00 0.00 0.00 0.01 0.01 0.01 0.01 0.02 0.01 0.00 0.00 0.00 0.00 0.00 0.00 0.00 0.00 0.00 0.00 0.00 0.00 0.00 0.00 0.00 0.00 0.00 0.00 0.00 0.00 0.00 0.00 0.00 0.00 0.01 0.01 0.02 0.02 0.02 0.02 0.02 0.01 0.01
0.00 0.00 0.00 0.00 0.00 0.00 0.00 0.00 0.00 0.00 0.00 0.00 0.00 0.01 0.03 0.01 0.00 0.00 0.00 0.00 0.00 0.00 0.00 0.00 0.00 0.00 0.00 0.00 0.00 0.00 0.00 0.00 0.00 0.00 0.00 0.00 0.00 0.00 0.00 0.00 0.00 0.01 0.02 0.02 0.02 0.02 0.02 0.02 0.01
0.00 0.00 0.00 0.00 0.00 0.00 0.00 0.00 0.00 0.00 0.00 0.01 0.01 0.01 0.01 0.00 0.00 0.00 0.00 0.00 0.00 0.00 0.00 0.00 0.00 0.00 0.00 0.00 0.00 0.00 0.00 0.00 0.00 0.01 0.01 0.01 0.01 0.01 0.01 0.01 0.01 0.01 0.01 0.02 0.02 0.02 0.02 0.02 0.02
0.00 0.00 0.00 0.00 0.00 0.00 0.00 0.00 0.00 0.00 0.00 0.04 0.05 0.02 0.00 0.00 0.00 0.00 0.00 0.00 0.00 0.00 0.00 0.00 0.00 0.00 0.00 0.00 0.02 0.03 0.03 0.04 0.03 0.04 0.05 0.04 0.04 0.03 0.02 0.04 0.05 0.02 0.01 0.01 0.02 0.03 0.03 0.02 0.02
0.00 0.00 0.00 0.00 0.00 0.00 0.00 0.00 0.00 0.00 0.01 0.03 0.05 0.02 0.00 0.00 0.00 0.01 0.01 0.00 0.00 0.00 0.00 0.00 0.00 0.00 0.00 0.01 0.02 0.04 0.05 0.09 0.11 0.14 0.19 0.18 0.15 0.09 0.03 0.06 0.11 0.07 0.04 0.02 0.03 0.03 0.02 0.03 0.04
0.00 0.00 0.00 0.00 0.00 0.00 0.00 0.00 0.00 0.00 0.00 0.01 0.03 0.02 0.00 0.00 0.01 0.02 0.02 0.01 0.01 0.01 0.01 0.00 0.01 0.01 0.01 0.02 0.02 0.02 0.02 0.05 0.08 0.15 0.20 0.20 0.19 0.16 0.13 0.14 0.15 0.16 0.13 0.09 0.08 0.08 0.05 0.07 0.08
0.00 0.00 0.00 0.00 0.00 0.00 0.00 0.00 0.00 0.00 0.00 0.00 0.00 0.00 0.00 0.01 0.02 0.03 0.02 0.03 0.03 0.03 0.03 0.02 0.03 0.02 0.03 0.03 0.03 0.01 0.01 0.02 0.03 0.08 0.13 0.18 0.20 0.21 0.22 0.21 0.20 0.16 0.16 0.20 0.15 0.11 0.14 0.16 0.16
0.00 0.00 0.00 0.00 0.00 0.00 0.00 0.00 0.00 0.00 0.00 0.00 0.00 0.00 0.01 0.01 0.02 0.03 0.03 0.04 0.04 0.04 0.04 0.03 0.03 0.03 0.03 0.04 0.03 0.02 0.01 0.02 0.02 0.04 0.08 0.15 0.17 0.21 0.24 0.25 0.26 0.23 0.23 0.25 0.29 0.28 0.29 0.26 0.25
0.00 0.00 0.00 0.00 0.00 0.00 0.00 0.00 0.00 0.00 0.00 0.00 0.00 0.00 0.01 0.02 0.02 0.03 0.04 0.04 0.04 0.04 0.04 0.04 0.03 0.02 0.02 0.03 0.02 0.02 0.01 0.01 0.02 0.05 0.08 0.12 0.16 0.21 0.25 0.28 0.29 0.30 0.35 0.36 0.34 0.33 0.36 0.30 0.26
0.00 0.00 0.00 0.00 0.01 0.00 0.00 0.02 0.00 0.00 0.00 0.00 0.00 0.00 0.01 0.01 0.01 0.02 0.03 0.02 0.02 0.02 0.02 0.02 0.01 0.00 0.01 0.01 0.01 0.01 0.01 0.02 0.04 0.06 0.08 0.09 0.12 0.16 0.22 0.26 0.28 0.33 0.38 0.40 0.39 0.35 0.35 0.33 0.32
0.00 0.00 0.01 0.05 0.04 0.01 0.00 0.01 0.00 0.00 0.00 0.00 0.00 0.00 0.01 0.01 0.01 0.02 0.02 0.01 0.01 0.01 0.02 0.01 0.01 0.00 0.00 0.00 0.00 0.01 0.02 0.04 0.05 0.07 0.09 0.09 0.09 0.12 0.18 0.23 0.27 0.30 0.35 0.39 0.36 0.36 0.37 0.36 0.35
0.01 0.03 0.07 0.09 0.04 0.03 0.01 0.02 0.01 0.00 0.00 0.00 0.00 0.00 0.01 0.01 0.01 0.01 0.01 0.01 0.01 0.01 0.01 0.01 0.01 0.00 0.00 0.00 0.00 0.01 0.02 0.03 0.05 0.08 0.08 0.08 0.11 0.14 0.21 0.27 0.29 0.29 0.32 0.35 0.34 0.34 0.33 0.31 0.29
0.01 0.03 0.09 0.07 0.04 0.03 0.01 0.00 0.00 0.00 0.00 0.00 0.00 0.00 0.00 0.00 0.00 0.00 0.00 0.00 0.00 0.00 0.00 0.00 0.00 0.01 0.01 0.01 0.01 0.01 0.01 0.02 0.05 0.04 0.05 0.06 0.09 0.14 0.20 0.23 0.25 0.26 0.26 0.26 0.26 0.28 0.28 0.27 0.27
0.00 0.00 0.04 0.07 0.04 0.01 0.00 0.00 0.00 0.00 0.00 0.00 0.00 0.00 0.00 0.00 0.00 0.00 0.00 0.00 0.00 0.00 0.00 0.00 0.00 0.00 0.00 0.01 0.00 0.00 0.01 0.01 0.03 0.03 0.04 0.04 0.04 0.07 0.10 0.14 0.17 0.20 0.20 0.22 0.22 0.22 0.21 0.20 0.22
0.00 0.01 0.08 0.15 0.06 0.01 0.01 0.05 0.05 0.03 0.01 0.00 0.00 0.00 0.00 0.00 0.00 0.00 0.00 0.00 0.00 0.00 0.00 0.00 0.00 0.00 0.00 0.00 0.00 0.00 0.00 0.01 0.01 0.01 0.02 0.02 0.02 0.05 0.07 0.10 0.12 0.16 0.19 0.20 0.21 0.20 0.18 0.15 0.14
0.03 0.02 0.02 0.04 0.03 0.03 0.05 0.18 0.21 0.13 0.08 0.02 0.00 0.00 0.00 0.00 0.00 0.00 0.00 0.00 0.00 0.00 0.00 0.00 0.00 0.00 0.00 0.00 0.00 0.00 0.00 0.00 0.00 0.00 0.01 0.01 0.01 0.02 0.03 0.06 0.08 0.11 0.15 0.18 0.18 0.20 0.19 0.16 0.11
0.01 0.01 0.01 0.02 0.03 0.05 0.14 0.29 0.29 0.18 0.14 0.05 0.01 0.01 0.02 0.01 0.00 0.00 0.00 0.00 0.00 0.00 0.00 0.00 0.00 0.00 0.01 0.01 0.00 0.00 0.00 0.00 0.00 0.00 0.00 0.00 0.00 0.00 0.01 0.01 0.03 0.05 0.08 0.13 0.15 0.20 0.19 0.18 0.13
0.00 0.00 0.01 0.04 0.08 0.18 0.34 0.41 0.38 0.17 0.12 0.03 0.01 0.01 0.01 0.00 0.00 0.00 0.00 0.00 0.00 0.00 0.00 0.00 0.00 0.00 0.01 0.00 0.00 0.00 0.01 0.01 0.00 0.00 0.00 0.00 0.00 0.00 0.00 0.00 0.01 0.01 0.03 0.05 0.08 0.12 0.16 0.19 0.18
0.00 0.00 0.04 0.23 0.36 0.36 0.30 0.30 0.30 0.09 0.02 0.01 0.00 0.00 0.00 0.00 0.00 0.00 0.00 0.00 0.00 0.00 0.00 0.00 0.00 0.00 0.00 0.00 0.00 0.00 0.00 0.01 0.01 0.01 0.01 0.01 0.00 0.00 0.00 0.00 0.00 0.00 0.01 0.02 0.04 0.06 0.11 0.16 0.17
0.00 0.00 0.01 0.05 0.08 0.13 0.14 0.21 0.17 0.02 0.00 0.00 0.00 0.00 0.00 0.00 0.00 0.00 0.00 0.00 0.00 0.00 0.00 0.00 0.00 0.00 0.00 0.00 0.00 0.00 0.00 0.00 0.00 0.00 0.01 0.00 0.00 0.00 0.00 0.00 0.00 0.00 0.00 0.01 0.01 0.02 0.05 0.10 0.13
0.00 0.00 0.00 0.00 0.00 0.03 0.09 0.12 0.06 0.01 0.00 0.00 0.00 0.00 0.00 0.00 0.00 0.00 0.00 0.00 0.00 0.00 0.00 0.00 0.00 0.00 0.00 0.00 0.00 0.00 0.00 0.00 0.00 0.00 0.00 0.00 0.00 0.00 0.00 0.00 0.00 0.00 0.00 0.00 0.00 0.01 0.03 0.05 0.08
0.00 0.00 0.00 0.00 0.00 0.01 0.03 0.08 0.08 0.02 0.00 0.00 0.00 0.00 0.00 0.00 0.00 0.00 0.00 0.00 0.00 0.00 0.00 0.00 0.00 0.00 0.00 0.00 0.00 0.00 0.00 0.00 0.00 0.00 0.00 0.00 0.00 0.00 0.00 0.00 0.00 0.00 0.00 0.00 0.00 0.00 0.01 0.02 0.04
0.00 0.00 0.00 0.00 0.00 0.00 0.00 0.02 0.01 0.00 0.00 0.00 0.00 0.00 0.00 0.00 0.00 0.00 0.00 0.00 0.00 0.00 0.00 0.00 0.00 0.00 0.00 0.00 0.00 0.00 0.00 0.00 0.00 0.00 0.00 0.01 0.01 0.01 0.01 0.01 0.00 0.00 0.00 0.00 0.01 0.00 0.00 0.01 0.02
0.00 0.00 0.00 0.00 0.00 0.00 0.00 0.00 0.00 0.00 0.00 0.00 0.00 0.00 0.00 0.00 0.00 0.00 0.00 0.00 0.00 0.00 0.00 0.00 0.00 0.00 0.00 0.00 0.00 0.00 0.00 0.00 0.00 0.00 0.00 0.01 0.01 0.01 0.01 0.01 0.01 0.01 0.00 0.01 0.01 0.01 0.01 0.01 0.01
MSLP
1008.24 1008.99 1009.69 1010.18 1010.34 1010.11 1009.50 1008.61 1007.58 1006.59 1005.79 1005.27 1005.07 1005.13 1005.38 1005.71 1006.02 1006.26 1006.42 1006.54 1006.68 1006.91 1007.26 1007.75 1008.33 1008.93 1009.48 1009.93 1010.24 1010.42 1010.53 1010.63 1010.79 1011.05 1011.43 1011.89 1012.40 1012.90 1013.32 1013.64 1013.86 1014.00 1014.10 1014.20 1014.33 1014.49 1014.69 1014.89 1015.07
1008.35 1009.06 1009.65 1009.97 1009.92 1009.49 1008.72 1007.73 1006.67 1005.73 1005.02 1004.64 1004.57 1004.76 1005.10 1005.49 1005.84 1006.09 1006.25 1006.38 1006.53 1006.78 1007.17 1007.69 1008.30 1008.93 1009.51 1009.97 1010.29 1010.49 1010.62 1010.75 1010.92 1011.20 1011.57 1012.01 1012.48 1012.92 1013.28 1013.55 1013.73 1013.85 1013.95 1014.07 1014.23 1014.43 1014.66 1014.89 1015.08
1008.48 1009.11 1009.54 1009.66 1009.41 1008.79 1007.89 1006.84 1005.81 1004.95 1004.38 1004.13 1004.20 1004.49 1004.89 1005.31 1005.65 1005.88 1006.03 1006.16 1006.33 1006.62 1007.05 1007.62 1008.27 1008.94 1009.54 1010.02 1010.37 1010.60 1010.76 1010.92 1011.12 1011.40 1011.76 1012.16 1012.57 1012.93 1013.22 1013.42 1013.55 1013.65 1013.77 1013.93 1014.14 1014.40 1014.68 1014.93 1015.14
1008.64 1009.14 1009.38 1009.29 1008.84 1008.08 1007.10 1006.06 1005.10 1004.37 1003.95 1003.84 1004.01 1004.36 1004.78 1005.17 1005.47 1005.67 1005.79 1005.92 1006.13 1006.47 1006.96 1007.58 1008.29 1008.99 1009.61 1010.11 1010.47 1010.72 1010.91 1011.10 1011.32 1011.62 1011.96 1012.34 1012.69 1012.97 1013.18 1013.31 1013.40 1013.49 1013.62 1013.83 1014.10 1014.42 1014.76 1015.05 1015.26
1008.79 1009.12 1009.16 1008.87 1008.27 1007.41 1006.43 1005.45 1004.62 1004.05 1003.78 1003.80 1004.04 1004.41 1004.79 1005.12 1005.34 1005.47 1005.57 1005.71 1005.96 1006.37 1006.93 1007.63 1008.38 1009.10 1009.73 1010.22 1010.58 1010.83 1011.03 1011.23 1011.48 1011.79 1012.14 1012.49 1012.80 1013.03 1013.18 1013.26 1013.31 1013.39 1013.54 1013.78 1014.11 1014.50 1014.88 1015.20 1015.42
1008.88 1009.02 1008.87 1008.42 1007.71 1006.82 1005.89 1005.04 1004.38 1003.99 1003.88 1004.01 1004.28 1004.62 1004.92 1005.14 1005.26 1005.32 1005.39 1005.55 1005.86 1006.34 1006.99 1007.75 1008.54 1009.27 1009.88 1010.33 1010.65 1010.87 1011.05 1011.26 1011.53 1011.86 1012.22 1012.58 1012.88 1013.08 1013.20 1013.24 1013.27 1013.34 1013.50 1013.77 1014.13 1014.55 1014.97 1015.31 1015.53
1008.87 1008.82 1008.49 1007.92 1007.16 1006.32 1005.50 1004.83 1004.38 1004.18 1004.22 1004.42 1004.71 1004.98 1005.18 1005.27 1005.27 1005.26 1005.30 1005.48 1005.85 1006.41 1007.14 1007.96 1008.76 1009.47 1010.03 1010.41 1010.66 1010.82 1010.96 1011.16 1011.44 1011.79 1012.19 1012.57 1012.88 1013.08 1013.19 1013.21 1013.22 1013.27 1013.42 1013.69 1014.07 1014.51 1014.94 1015.29 1015.50
1008.71 1008.49 1008.03 1007.39 1006.64 1005.90 1005.25 1004.79 1004.56 1004.56 1004.74 1005.01 1005.28 1005.47 1005.55 1005.51 1005.40 1005.31 1005.33 1005.54 1005.96 1006.59 1007.37 1008.21 1009.01 1009.67 1010.15 1010.44 1010.59 1010.67 1010.76 1010.93 1011.21 1011.59 1012.02 1012.44 1012.78 1013.00 1013.10 1013.11 1013.10 1013.12 1013.25 1013.49 1013.85 1014.28 1014.70 1015.05 1015.26
1008.42 1008.06 1007.52 1006.86 1006.18 1005.58 1005.13 1004.90 1004.90 1005.09 1005.39 1005.72 1005.97 1006.09 1006.06 1005.91 1005.71 1005.56 1005.55 1005.76 1006.21 1006.87 1007.67 1008.51 1009.26 1009.85 1010.23 1010.42 1010.46 1010.46 1010.49 1010.62 1010.90 1011.29 1011.75 1012.20 1012.58 1012.82 1012.93 1012.92 1012.87 1012.86 1012.93 1013.12 1013.44 1013.83 1014.23 1014.56 1014.78
1008.02 1007.59 1007.01 1006.39 1005.82 1005.39 1005.16 1005.16 1005.37 1005.73 1006.15 1006.52 1006.77 1006.85 1006.74 1006.51 1006.24 1006.04 1006.01 1006.20 1006.64 1007.29 1008.06 1008.84 1009.51 1010.01 1010.28 1010.36 1010.31 1010.22 1010.19 1010.29 1010.56 1010.95 1011.43 1011.90 1012.30 1012.55 1012.65 1012.63 1012.54 1012.46 1012.47 1012.59 1012.83 1013.17 1013.54 1013.87 1014.09
1007.60 1007.14 1006.60 1006.07 1005.63 1005.38 1005.36 1005.56 1005.96 1006.47 1006.99 1007.42 1007.68 1007.74 1007.60 1007.33 1007.02 1006.79 1006.71 1006.87 1007.26 1007.83 1008.52 1009.20 1009.77 1010.16 1010.33 1010.32 1010.19 1010.04 1009.96 1010.03 1010.27 1010.65 1011.12 1011.59 1011.98 1012.23 1012.31 1012.26 1012.12 1011.98 1011.91 1011.95 1012.12 1012.39 1012.72 1013.04 1013.29
1007.25 1006.84 1006.38 1005.96 1005.68 1005.60 1005.75 1006.13 1006.66 1007.28 1007.88 1008.36 1008.66 1008.73 1008.61 1008.35 1008.03 1007.78 1007.66 1007.75 1008.04 1008.51 1009.06 1009.61 1010.05 1010.33 1010.41 1010.34 1010.16 1009.97 1009.86 1009.89 1010.10 1010.44 1010.87 1011.31 1011.66 1011.88 1011.94 1011.85 1011.67 1011.47 1011.33 1011.29 1011.38 1011.60 1011.89 1012.20 1012.48
1007.08 1006.75 1006.41 1006.13 1006.01 1006.08 1006.36 1006.85 1007.47 1008.15 1008.79 1009.31 1009.65 1009.77 1009.70 1009.49 1009.20 1008.94 1008.79 1008.79 1008.96 1009.27 1009.66 1010.05 1010.36 1010.53 1010.56 1010.44 1010.25 1010.06 1009.93 1009.93 1010.08 1010.36 1010.71 1011.08 1011.37 1011.54 1011.57 1011.45 1011.24 1011.00 1010.81 1010.71 1010.74 1010.90 1011.16 1011.46 1011.76
1007.13 1006.93 1006.73 1006.60 1006.62 1006.80 1007.17 1007.70 1008.34 1009.02 1009.66 1010.19 1010.57 1010.76 1010.76 1010.63 1010.40 1010.16 1009.97 1009.89 1009.92 1010.06 1010.28 1010.51 1010.69 1010.79 1010.77 1010.66 1010.48 1010.30 1010.16 1010.12 1010.20 1010.39 1010.64 1010.90 1011.11 1011.22 1011.21 1011.07 1010.86 1010.61 1010.40 1010.28 1010.27 1010.38 1010.61 1010.89 1011.20
1007.40 1007.35 1007.31 1007.33 1007.46 1007.72 1008.12 1008.62 1009.21 1009.82 1010.41 1010.92 1011.31 1011.56 1011.65 1011.61 1011.47 1011.28 1011.08 1010.92 1010.83 1010.81 1010.86 1010.95 1011.03 1011.08 1011.06 1010.97 1010.83 1010.67 1010.53 1010.44 1010.43 1010.49 1010.61 1010.74 1010.85 1010.89 1010.85 1010.73 1010.54 1010.33 1010.14 1010.02 1009.99 1010.07 1010.26 1010.51 1010.80
1007.85 1007.95 1008.07 1008.23 1008.46 1008.77 1009.14 1009.56 1010.03 1010.51 1010.98 1011.41 1011.79 1012.07 1012.25 1012.32 1012.27 1012.14 1011.96 1011.76 1011.58 1011.44 1011.36 1011.34 1011.35 1011.37 1011.37 1011.33 1011.24 1011.11 1010.96 1010.81 1010.69 1010.61 1010.57 1010.56 1010.56 1010.54 1010.49 1010.40 1010.27 1010.13 1009.99 1009.91 1009.88 1009.94 1010.08 1010.29 1010.54
1008.36 1008.62 1008.90 1009.21 1009.53 1009.85 1010.17 1010.47 1010.76 1011.05 1011.35 1011.65 1011.96 1012.24 1012.48 1012.65 1012.71 1012.67 1012.53 1012.33 1012.10 1011.90 1011.73 1011.64 1011.62 1011.64 1011.68 1011.69 1011.65 1011.55 1011.38 1011.17 1010.92 1010.69 1010.49 1010.33 1010.22 1010.15 1010.10 1010.07 1010.02 1009.98 1009.93 1009.90 1009.89 1009.94 1010.03 1010.17 1010.34
1008.85 1009.26 1009.71 1010.16 1010.58 1010.92 1011.16 1011.32 1011.40 1011.46 1011.53 1011.66 1011.84 1012.09 1012.35 1012.59 1012.76 1012.81 1012.76 1012.60 1012.38 1012.15 1011.95 1011.83 1011.81 1011.85 1011.93 1012.01 1012.02 1011.94 1011.74 1011.45 1011.09 1010.71 1010.35 1010.05 1009.85 1009.73 1009.70 1009.73 1009.78 1009.84 1009.90 1009.93 1009.95 1009.98 1010.02 1010.08 1010.16
1009.22 1009.79 1010.42 1011.03 1011.55 1011.92 1012.11 1012.12 1011.98 1011.78 1011.60 1011.50 1011.52 1011.67 1011.92 1012.21 1012.47 1012.63 1012.67 1012.59 1012.42 1012.21 1012.03 1011.92 1011.91 1011.99 1012.12 1012.24 1012.29 1012.23 1012.01 1011.65 1011.19 1010.67 1010.18 1009.77 1009.48 1009.33 1009.31 1009.41 1009.56 1009.72 1009.86 1009.96 1010.01 1010.02 1010.00 1009.98 1009.96
1009.41 1010.16 1010.97 1011.77 1012.42 1012.85 1013.00 1012.88 1012.54 1012.09 1011.64 1011.29 1011.11 1011.13 1011.33 1011.63 1011.95 1012.21 1012.36 1012.38 1012.28 1012.13 1011.99 1011.91 1011.93 1012.04 1012.21 1012.37 1012.46 1012.41 1012.18 1011.78 1011.23 1010.62 1010.03 1009.52 1009.17 1008.99 1008.99 1009.13 1009.35 1009.60 1009.81 1009.96 1010.02 1010.01 1009.94 1009.84 1009.73
1009.43 1010.35 1011.37 1012.36 1013.18 1013.69 1013.85 1013.64 1013.13 1012.44 1011.72 1011.12 1010.73 1010.60 1010.71 1010.99 1011.35 1011.70 1011.94 1012.06 1012.06 1011.98 1011.88 1011.84 1011.88 1012.02 1012.22 1012.41 1012.52 1012.49 1012.26 1011.84 1011.26 1010.60 1009.94 1009.38 1008.98 1008.78 1008.78 1008.94 1009.20 1009.49 1009.74 1009.91 1009.98 1009.95 1009.83 1009.67 1009.49
1009.29 1010.38 1011.61 1012.81 1013.80 1014.43 1014.62 1014.36 1013.72 1012.85 1011.91 1011.08 1010.48 1010.19 1010.19 1010.42 1010.80 1011.20 1011.53 1011.74 1011.82 1011.81 1011.76 1011.74 1011.80 1011.95 1012.16 1012.36 1012.50 1012.49 1012.29 1011.88 1011.31 1010.65 1009.97 1009.39 1008.96 1008.73 1008.71 1008.86 1009.11 1009.40 1009.65 1009.82 1009.88 1009.83 1009.68 1009.48 1009.27
1009.06 1010.31 1011.72 1013.11 1014.26 1015.01 1015.26 1014.99 1014.28 1013.27 1012.17 1011.15 1010.38 1009.94 1009.83 1010.01 1010.38 1010.82 1011.20 1011.48 1011.63 1011.67 1011.65 1011.64 1011.70 1011.84 1012.03 1012.24 1012.40 1012.42 1012.26 1011.91 1011.39 1010.76 1010.11 1009.53 1009.09 1008.83 1008.77 1008.87 1009.08 1009.33 1009.55 1009.69 1009.72 1009.65 1009.50 1009.29 1009.06
1008.81 1010.16 1011.71 1013.24 1014.53 1015.38 1015.70 1015.46 1014.72 1013.64 1012.43 1011.29 1010.39 1009.84 1009.65 1009.78 1010.13 1010.58 1011.00 1011.32 1011.51 1011.58 1011.57 1011.56 1011.59 1011.70 1011.87 1012.07 1012.23 1012.29 1012.20 1011.92 1011.48 1010.92 1010.32 1009.77 1009.32 1009.03 1008.92 1008.95 1009.08 1009.26 1009.41 1009.51 1009.51 1009.43 1009.28 1009.09 1008.89
1008.59 1009.99 1011.60 1013.19 1014.55 1015.48 1015.85 1015.64 1014.92 1013.84 1012.59 1011.41 1010.45 1009.84 1009.59 1009.69 1010.02 1010.47 1010.92 1011.26 1011.47 1011.55 1011.53 1011.49 1011.48 1011.54 1011.68 1011.85 1012.02 1012.11 1012.08 1011.88 1011.53 1011.06 1010.54 1010.02 1009.58 1009.26 1009.07 1009.02 1009.06 1009.14 1009.22 1009.26 1009.24 1009.16 1009.03 1008.88 1008.72
1008.45 1009.81 1011.39 1012.96 1014.31 1015.25 1015.65 1015.49 1014.82 1013.78 1012.58 1011.42 1010.48 1009.86 1009.61 1009.70 1010.03 1010.47 1010.92 1011.27 1011.48 1011.55 1011.51 1011.43 1011.37 1011.38 1011.46 1011.60 1011.76 1011.87 1011.89 1011.77 1011.51 1011.12 1010.67 1010.20 1009.77 1009.42 1009.17 1009.03 1008.98 1008.97 1008.97 1008.96 1008.92 1008.84 1008.74 1008.63 1008.53
1008.43 1009.67 1011.12 1012.57 1013.83 1014.72 1015.11 1014.98 1014.38 1013.44 1012.34 1011.28 1010.42 1009.87 1009.66 1009.76 1010.09 1010.54 1010.98 1011.32 1011.52 1011.56 1011.50 1011.38 1011.26 1011.21 1011.23 1011.33 1011.46 1011.57 1011.62 1011.56 1011.36 1011.06 1010.66 1010.23 1009.81 1009.44 1009.15 1008.94 1008.80 1008.72 1008.66 1008.61 1008.55 1008.48 1008.41 1008.35 1008.31
1008.54 1009.58 1010.82 1012.07 1013.16 1013.94 1014.29 1014.18 1013.67 1012.86 1011.91 1011.01 1010.29 1009.84 1009.70 1009.84 1010.19 1010.63 1011.05 1011.38 1011.56 1011.58 1011.48 1011.32 1011.16 1011.05 1011.02 1011.06 1011.15 1011.24 1011.28 1011.24 1011.09 1010.83 1010.49 1010.09 1009.69 1009.31 1008.98 1008.72 1008.53 1008.39 1008.29 1008.22 1008.15 1008.10 1008.06 1008.03 1008.03
1008.78 1009.58 1010.55 1011.54 1012.41 1013.02 1013.30 1013.21 1012.79 1012.13 1011.38 1010.67 1010.12 1009.81 1009.76 1009.95 1010.31 1010.74 1011.14 1011.43 1011.58 1011.58 1011.46 1011.26 1011.06 1010.90 1010.82 1010.80 1010.83 1010.88 1010.90 1010.85 1010.71 1010.47 1010.15 1009.78 1009.39 1009.02 1008.68 1008.41 1008.19 1008.03 1007.90 1007.82 1007.75 1007.71 1007.68 1007.67 1007.68
1009.13 1009.68 1010.36 1011.07 1011.69 1012.13 1012.31 1012.23 1011.91 1011.41 1010.86 1010.35 1009.99 1009.82 1009.87 1010.11 1010.46 1010.86 1011.22 1011.47 1011.58 1011.55 1011.40 1011.19 1010.97 1010.78 1010.64 1010.57 1010.55 1010.54 1010.51 1010.42 1010.26 1010.02 1009.70 1009.35 1008.97 1008.61 1008.29 1008.02 1007.80 1007.64 1007.52 1007.43 1007.36 1007.31 1007.29 1007.28 1007.28
Thickness
5851 5852 5851 5846 5829 5816 5821 5852 5869 5869 5873 5884 5887 5881 5867 5857 5846 5833 5868 5878 5869 5855 5845 5839 5835 5831 5827 5823 5819 5815 5812 5809 5805 5801 5798 5795 5791 5788 5785 5782 5779 5777 5775 5773 5771 5769 5766 5764 5762
5859 5860 5853 5844 5823 5812 5827 5858 5864 5870 5879 5889 5889 5882 5867 5859 5868 5865 5868 5872 5865 5854 5844 5838 5832 5828 5824 5820 5817 5813 5810 5807 5804 5800 5797 5793 5790 5787 5783 5780 5778 5775 5773 5771 5770 5768 5765 5763 5761
5861 5865 5850 5843 5838 5835 5842 5864 5868 5882 5889 5887 5880 5877 5865 5856 5865 5866 5869 5872 5864 5853 5844 5835 5830 5826 5822 5818 5814 5811 5808 5805 5801 5798 5795 5791 5788 5785 5782 5779 5776 5774 5772 5770 5768 5766 5764 5762 5760
5858 5858 5850 5840 5843 5863 5867 5871 5878 5879 5881 5887 5880 5862 5861 5869 5870 5869 5873 5871 5859 5850 5842 5832 5827 5822 5818 5815 5811 5808 5805 5802 5799 5796 5793 5789 5786 5783 5780 5777 5775 5772 5770 5768 5766 5765 5763 5761 5759
5859 5850 5840 5842 5856 5875 5883 5883 5883 5875 5874 5878 5872 5851 5848 5866 5873 5872 5872 5867 5857 5849 5839 5829 5823 5819 5815 5811 5808 5804 5801 5798 5795 5792 5789 5786 5783 5781 5778 5775 5773 5770 5768 5766 5765 5763 5761 5759 5758
5847 5850 5835 5845 5863 5878 5887 5890 5885 5875 5872 5872 5865 5849 5845 5864 5866 5868 5869 5865 5860 5849 5837 5825 5819 5815 5811 5808 5804 5801 5798 5794 5791 5788 5785 5782 5780 5777 5775 5772 5770 5768 5766 5764 5762 5761 5759 5757 5756
5838 5838 5835 5851 5868 5873 5878 5888 5879 5870 5859 5862 5866 5845 5842 5855 5864 5867 5865 5863 5858 5848 5833 5823 5817 5812 5808 5804 5801 5797 5793 5790 5787 5783 5781 5778 5775 5773 5771 5769 5767 5765 5763 5762 5760 5759 5757 5755 5754
5851 5839 5834 5851 5866 5870 5882 5883 5878 5868 5859 5871 5867 5841 5833 5848 5863 5863 5859 5856 5850 5843 5832 5823 5818 5811 5806 5802 5797 5794 5790 5787 5783 5779 5776 5774 5771 5769 5767 5765 5763 5761 5760 5758 5757 5756 5755 5753 5752
5851 5825 5824 5849 5863 5867 5878 5869 5869 5874 5859 5852 5852 5847 5850 5857 5858 5851 5846 5842 5837 5833 5829 5825 5820 5812 5808 5803 5798 5791 5787 5784 5780 5776 5773 5770 5768 5766 5764 5762 5761 5759 5757 5755 5754 5752 5751 5750 5750
5838 5818 5834 5866 5868 5863 5864 5858 5858 5854 5838 5830 5830 5839 5850 5850 5844 5838 5832 5827 5824 5821 5821 5819 5815 5809 5806 5804 5797 5791 5787 5783 5778 5776 5772 5767 5765 5764 5765 5764 5759 5756 5754 5752 5751 5749 5748 5747 5748
5837 5827 5845 5861 5867 5862 5854 5852 5849 5837 5814 5814 5816 5823 5835 5835 5831 5827 5823 5821 5817 5813 5811 5809 5806 5802 5799 5796 5792 5789 5786 5783 5778 5774 5770 5766 5764 5762 5762 5762 5759 5754 5751 5749 5748 5746 5745 5746 5747
5835 5838 5847 5851 5858 5850 5844 5842 5828 5817 5807 5816 5819 5821 5823 5817 5813 5810 5808 5807 5806 5802 5799 5798 5797 5793 5789 5787 5785 5784 5782 5779 5776 5773 5768 5765 5762 5759 5757 5756 5755 5752 5750 5748 5747 5746 5746 5745 5747
5832 5835 5844 5850 5849 5845 5839 5827 5816 5802 5806 5808 5808 5806 5805 5800 5800 5798 5798 5796 5794 5790 5788 5787 5786 5783 5780 5777 5775 5775 5773 5772 5770 5767 5763 5760 5757 5754 5753 5751 5749 5748 5747 5746 5744 5744 5745 5744 5745
5834 5838 5840 5842 5840 5838 5826 5817 5805 5793 5797 5792 5789 5787 5788 5787 5786 5785 5784 5782 5780 5778 5777 5777 5777 5775 5772 5769 5767 5766 5766 5765 5763 5760 5757 5754 5752 5749 5747 5746 5744 5743 5742 5742 5741 5740 5740 5740 5741
5834 5825 5827 5832 5830 5827 5818 5792 5786 5787 5787 5779 5775 5773 5773 5775 5775 5773 5772 5771 5770 5769 5768 5767 5768 5766 5763 5761 5759 5759 5758 5756 5754 5751 5748 5747 5745 5743 5741 5740 5739 5739 5737 5735 5734 5735 5734 5735 5736
5824 5812 5804 5813 5816 5818 5808 5770 5777 5784 5777 5768 5766 5765 5763 5763 5765 5766 5765 5764 5763 5760 5758 5757 5758 5755 5754 5753 5751 5750 5749 5747 5744 5742 5740 5739 5737 5736 5735 5734 5734 5734 5733 5731 5728 5728 5727 5727 5729
5806 5791 5782 5781 5796 5801 5796 5768 5772 5779 5771 5762 5759 5758 5757 5756 5757 5758 5759 5757 5755 5753 5751 5749 5748 5745 5744 5744 5742 5741 5741 5739 5737 5734 5732 5730 5729 5729 5728 5728 5729 5729 5728 5727 5724 5723 5723 5722 5723
5772 5760 5749 5745 5778 5790 5782 5768 5767 5773 5768 5759 5756 5754 5753 5751 5752 5754 5753 5752 5750 5748 5745 5742 5740 5737 5735 5734 5732 5732 5731 5730 5729 5728 5725 5723 5722 5721 5721 5722 5723 5723 5722 5720 5719 5718 5719 5719 5719
5792 5775 5748 5752 5782 5781 5778 5768 5767 5769 5765 5757 5753 5752 5750 5749 5751 5751 5750 5749 5745 5742 5738 5735 5731 5729 5726 5723 5720 5719 5719 5720 5720 5721 5719 5717 5715 5714 5714 5715 5716 5716 5716 5715 5714 5713 5712 5713 5714
5803 5788 5772 5766 5784 5782 5775 5769 5769 5766 5762 5759 5755 5751 5748 5746 5745 5744 5743 5743 5739 5735 5732 5729 5724 5720 5717 5713 5712 5712 5712 5712 5713 5713 5711 5710 5708 5707 5707 5706 5707 5709 5709 5709 5709 5708 5706 5707 5710
5796 5783 5774 5766 5771 5776 5767 5753 5750 5757 5758 5759 5757 5754 5750 5745 5741 5739 5738 5736 5733 5729 5726 5722 5717 5712 5708 5704 5703 5703 5702 5703 5702 5701 5701 5702 5701 5700 5699 5698 5698 5699 5701 5701 5702 5702 5701 5699 5703
5775 5789 5785 5771 5751 5747 5751 5719 5727 5737 5741 5746 5749 5749 5746 5744 5741 5737 5734 5730 5727 5724 5721 5716 5711 5705 5700 5696 5692 5688 5686 5686 5688 5689 5690 5691 5691 5691 5691 5690 5690 5689 5691 5692 5694 5697 5697 5695 5694
5788 5798 5783 5765 5748 5736 5719 5696 5708 5728 5727 5737 5743 5746 5744 5741 5739 5733 5730 5726 5723 5719 5714 5709 5704 5698 5692 5687 5683 5679 5677 5676 5676 5676 5677 5679 5681 5682 5683 5682 5681 5680 5680 5682 5684 5686 5688 5689 5689
5808 5795 5777 5756 5732 5701 5694 5681 5693 5717 5729 5737 5742 5743 5741 5739 5736 5732 5728 5724 5718 5714 5708 5702 5695 5689 5684 5679 5674 5670 5667 5665 5664 5664 5665 5667 5670 5672 5673 5673 5671 5670 5670 5670 5672 5674 5677 5680 5683
5796 5778 5750 5718 5691 5688 5705 5689 5700 5732 5745 5744 5742 5741 5741 5738 5734 5728 5723 5717 5711 5706 5701 5695 5688 5681 5676 5671 5667 5662 5659 5657 5656 5657 5658 5657 5658 5659 5660 5661 5660 5660 5660 5660 5660 5662 5666 5669 5672
5786 5782 5754 5732 5727 5716 5705 5701 5718 5746 5750 5751 5749 5745 5741 5738 5733 5725 5719 5713 5706 5701 5694 5688 5681 5674 5669 5664 5660 5656 5653 5651 5650 5648 5647 5646 5647 5649 5650 5650 5650 5651 5651 5651 5651 5651 5654 5657 5661
5784 5782 5790 5772 5766 5740 5721 5722 5731 5748 5747 5747 5746 5743 5738 5734 5728 5721 5715 5708 5701 5694 5687 5681 5675 5668 5663 5658 5654 5650 5648 5644 5641 5639 5638 5639 5639 5640 5641 5639 5639 5640 5641 5641 5642 5642 5643 5646 5649
5795 5789 5777 5761 5744 5738 5739 5726 5720 5732 5738 5741 5740 5738 5734 5729 5722 5716 5708 5702 5695 5689 5682 5676 5669 5663 5658 5653 5648 5645 5640 5636 5634 5632 5630 5629 5629 5629 5629 5629 5629 5629 5630 5631 5631 5632 5634 5635 5638
5780 5776 5769 5764 5758 5736 5733 5722 5744 5740 5740 5738 5737 5735 5728 5722 5715 5708 5702 5696 5690 5683 5676 5669 5663 5656 5651 5646 5641 5636 5632 5629 5626 5624 5622 5621 5620 5618 5617 5617 5616 5616 5616 5617 5618 5620 5622 5623 5626
5785 5773 5766 5744 5740 5749 5745 5725 5755 5750 5747 5741 5735 5730 5724 5716 5709 5703 5696 5689 5682 5675 5668 5661 5655 5649 5644 5639 5633 5628 5624 5621 5618 5616 5614 5612 5609 5608 5606 5604 5603 5603 5603 5603 5603 5604 5607 5610 5612